Theta_e
307 308 309 310 310 311 311 311 311 310 310 310 311 311 311 310 310 310 312 313 314 315 315 316 316 318 319 321 321 324 327 329 331 332 333 334 335 337 339 341 341 341 341 342 343 342 341 340 339 335 331 336
305 305 306 307 307 307 308 308 308 307 307 307 307 308 307 307 306 307 308 309 310 311 311 312 313 314 317 318 319 320 323 326 327 329 331 333 334 334 336 338 340 341 341 341 341 340 340 339 337 334 328 335
297 304 303 304 305 305 305 305 305 305 304 304 304 305 305 304 304 304 304 305 306 307 307 307 308 310 314 315 317 319 322 324 323 323 327 330 332 334 335 336 337 337 336 337 338 339 338 336 333 330 329 333
294 302 302 302 303 303 303 303 303 303 303 302 302 303 303 302 300 300 299 303 301 305 305 305 304 307 311 312 313 317 320 319 318 319 320 322 326 330 332 333 332 330 332 334 336 336 335 332 327 333 333 334
294 298 300 297 300 301 301 302 301 301 300 300 299 300 301 299 295 295 295 295 298 302 300 304 305 305 308 309 310 313 315 315 315 317 320 322 323 326 328 326 325 326 330 332 334 334 332 327 333 335 335 336
294 294 296 291 291 294 296 298 299 294 295 297 292 298 295 294 295 294 294 295 301 297 299 299 303 304 305 306 307 308 311 312 313 315 317 319 319 319 321 322 324 326 326 329 331 329 326 330 333 335 336 336
293 292 291 290 291 293 296 295 295 291 293 291 292 293 292 294 293 293 293 294 299 300 301 299 302 303 303 304 304 306 307 308 310 313 315 315 314 315 315 319 323 325 327 329 325 323 329 332 333 335 336 336
290 291 290 290 290 291 290 291 292 290 290 291 291 292 292 292 293 292 292 298 299 300 294 295 299 301 301 301 302 304 304 305 306 310 311 310 310 310 311 314 317 321 324 327 329 332 333 333 333 334 335 335
290 292 289 289 290 291 290 291 290 290 290 290 290 291 291 292 292 292 291 291 292 292 292 292 292 293 294 294 295 302 298 298 301 305 304 303 304 305 307 308 311 315 317 320 325 328 331 333 333 333 333 334
292 290 289 289 290 291 289 291 289 289 289 290 290 290 291 292 291 291 291 291 291 291 291 291 291 292 292 293 294 297 296 297 299 301 301 301 301 302 304 305 307 310 313 317 320 323 327 330 332 333 333 333
288 289 289 288 291 291 288 290 289 288 288 289 289 289 291 291 290 290 290 290 290 291 291 291 291 291 291 292 293 295 295 296 298 300 299 299 300 300 301 302 304 306 309 312 315 318 321 324 327 330 331 332
288 288 289 290 292 288 292 290 288 287 289 289 288 290 289 291 289 289 289 290 290 290 290 290 291 291 291 291 292 293 295 296 297 297 298 298 298 299 299 300 302 303 305 307 310 314 317 320 323 326 329 331
288 288 288 288 288 287 295 288 288 288 288 287 288 288 289 290 289 289 289 289 289 289 289 290 290 290 290 291 291 292 292 294 294 295 296 297 297 297 297 299 299 302 303 305 307 311 315 317 320 323 326 330
288 287 287 287 288 287 291 287 288 288 286 287 287 287 288 289 289 289 288 288 289 288 288 289 289 289 290 290 291 291 291 292 293 293 294 295 296 296 296 297 299 300 301 302 304 307 310 314 317 320 323 326
288 288 286 288 287 287 287 287 289 287 286 286 286 287 288 288 288 289 288 287 287 287 287 288 288 288 289 290 290 291 291 291 292 292 293 294 294 295 296 297 298 299 299 300 302 304 306 309 313 317 321 324
287 287 287 289 287 287 287 288 287 286 286 287 286 287 287 287 287 288 286 286 285 286 286 286 287 288 288 289 289 290 290 291 291 291 292 293 294 295 296 296 297 298 299 299 300 302 305 307 310 313 317 321
287 286 286 287 287 287 289 286 286 285 285 285 286 287 286 286 286 287 285 285 285 286 285 286 286 286 286 287 287 288 289 289 290 290 291 291 293 293 294 295 296 297 297 297 299 301 302 303 304 309 313 318
286 286 286 289 286 288 287 285 284 286 284 286 286 286 285 285 285 286 285 284 284 284 285 285 284 284 284 285 286 286 286 286 287 288 289 290 291 293 293 293 294 295 295 296 297 298 299 299 301 304 306 309
286 288 287 286 285 285 286 285 284 283 284 284 284 285 284 285 285 285 284 284 284 284 284 283 283 283 284 284 285 284 285 285 285 286 287 289 290 291 292 293 294 294 294 295 295 296 297 297 299 301 304 308
286 285 285 285 289 285 285 284 283 283 283 284 283 284 283 284 284 285 283 283 283 283 283 282 282 283 283 284 284 284 284 284 284 284 286 288 289 290 290 292 293 294 293 294 294 295 296 296 297 297 299 301
285 285 284 284 284 284 284 283 282 283 283 283 283 283 283 283 284 283 283 283 283 282 282 282 282 283 283 283 283 283 283 283 284 283 284 285 288 290 290 292 292 293 293 293 293 294 295 295 296 296 298 299
285 285 284 283 283 286 284 282 282 282 283 282 283 282 282 283 283 283 282 282 282 282 282 282 282 282 282 283 282 282 282 282 283 283 283 283 285 288 290 291 291 291 292 292 293 293 294 294 295 296 297 298
285 284 282 282 282 282 282 282 282 282 282 282 282 282 283 282 282 282 282 282 282 281 281 281 281 281 282 282 282 282 281 281 282 282 283 282 283 285 287 289 290 290 291 292 293 293 293 294 294 295 296 297
283 282 282 281 281 280 281 281 282 282 281 282 281 283 282 281 281 281 282 281 281 281 281 281 281 281 281 281 281 281 280 280 281 281 282 282 283 283 285 288 289 291 291 292 292 292 293 293 294 294 295 296
282 280 280 280 280 279 279 280 282 280 281 281 281 282 281 281 281 281 281 281 281 280 281 280 280 280 280 281 281 280 280 281 281 282 283 283 283 283 283 285 288 290 292 290 289 291 291 291 293 294 295 296
283 281 280 280 279 279 279 279 279 279 280 280 282 281 280 280 280 280 280 281 280 280 280 279 279 279 279 280 280 280 281 281 283 282 281 281 280 282 282 282 286 288 289 287 286 286 287 289 291 292 293 293
281 281 282 280 280 279 279 280 281 280 281 281 281 279 279 280 279 279 279 279 280 280 279 279 279 279 279 279 280 280 280 280 279 280 279 279 279 278 280 281 284 287 288 286 288 289 287 285 285 289 291 294
281 281 282 281 280 280 279 279 281 281 280 279 279 278 279 279 279 279 279 279 279 279 279 278 278 278 279 279 279 279 278 277 277 278 278 279 279 279 277 279 281 286 288 288 288 284 285 285 286 283 285 287
281 282 280 279 279 280 279 279 279 277 277 278 278 279 277 277 278 278 278 278 278 279 278 278 278 278 278 278 278 278 277 277 277 278 278 278 278 278 278 277 279 282 286 288 291 288 286 284 283 283 285 287
281 280 279 277 277 276 276 276 276 275 275 276 276 276 277 278 278 278 278 278 278 278 279 278 278 277 277 277 277 277 277 277 277 277 278 279 279 278 279 278 278 279 284 287 289 291 291 290 286 285 286 286
282 279 278 277 276 276 276 275 276 276 276 276 277 277 277 277 277 277 277 277 277 277 277 277 277 277 277 277 277 278 277 277 277 277 277 278 277 277 278 277 275 276 279 284 287 290 291 291 292 292 289 285
Wind_Speed
19 20 19 20 20 20 20 20 21 21 21 21 21 21 20 20 20 20 20 20 21 20 21 21 21 22 21 21 21 21 22 23 23 23 23 22 22 21 21 20 20 20 21 21 17 14 14 13 12 11 9 6
16 18 19 18 19 19 19 20 20 20 20 20 20 20 20 20 19 19 19 19 20 20 20 21 21 21 21 21 21 21 21 20 20 21 20 20 21 21 20 20 20 20 20 19 18 17 15 14 13 11 11 6
7 14 15 17 17 17 18 18 19 18 18 18 18 19 18 18 16 17 16 18 18 19 20 20 20 21 20 21 21 21 20 20 20 20 21 21 21 20 19 20 19 21 21 20 17 16 16 15 13 13 9 5
5 8 13 13 14 15 16 17 17 17 16 14 13 13 14 13 10 10 9 14 11 15 17 18 17 19 20 21 21 21 20 20 21 20 20 20 21 21 20 20 20 21 19 18 17 16 16 15 15 9 5 7
5 6 10 8 10 12 13 14 13 12 11 10 9 10 10 8 6 7 7 7 8 10 9 12 15 18 19 20 20 20 20 21 21 21 20 20 20 20 21 20 19 15 17 17 15 15 15 17 12 8 7 8
4 4 7 6 5 5 7 9 10 7 7 6 4 7 6 4 5 6 6 6 8 7 8 9 14 15 18 19 20 20 20 20 20 20 20 20 20 21 20 21 10 9 11 14 13 13 15 12 9 9 9 8
5 5 5 5 5 4 6 5 5 5 6 6 6 6 5 5 5 4 4 5 7 8 10 9 13 14 16 16 18 18 19 18 20 20 19 20 20 20 19 12 9 9 9 9 13 12 10 8 9 10 10 9
6 6 5 6 5 5 5 5 4 4 5 5 5 6 5 5 5 5 5 6 8 7 5 6 9 11 12 12 12 16 11 13 14 19 17 17 19 13 8 9 9 9 9 9 9 8 8 8 8 9 10 9
6 5 6 6 6 7 7 7 8 7 7 6 7 7 6 6 5 5 5 5 6 6 6 5 5 5 6 6 7 10 7 8 9 9 9 9 9 8 9 10 10 10 10 10 9 9 9 10 10 10 10 9
5 5 6 6 6 6 7 7 7 7 7 8 8 7 7 6 7 7 7 7 7 7 6 7 6 6 6 5 5 6 7 7 8 8 7 8 9 8 8 8 9 9 9 10 10 10 10 10 9 9 9 9
5 6 5 6 6 6 6 6 6 6 6 6 6 6 6 7 7 7 6 7 7 8 8 8 8 7 6 6 6 5 6 7 8 7 8 8 8 8 9 9 8 9 9 9 10 10 10 10 10 10 9 9
4 4 4 4 3 4 4 6 6 6 6 5 6 5 6 6 6 6 7 7 8 8 6 7 8 8 8 7 6 6 5 7 7 7 7 8 8 9 8 9 9 9 9 10 9 10 10 11 10 10 11 11
2 3 3 3 3 4 4 5 4 5 5 5 6 6 6 6 7 7 7 8 8 7 8 8 8 8 8 8 7 6 6 6 8 8 7 8 8 8 9 8 9 9 9 9 9 9 10 11 10 10 11 11
2 3 3 3 3 3 3 4 5 4 5 5 5 6 6 6 6 6 7 7 8 9 9 8 8 8 8 8 8 8 9 7 7 8 9 8 8 9 8 9 8 9 9 10 9 9 10 10 10 10 10 11
3 3 3 3 3 3 3 4 4 4 3 4 4 5 4 4 4 5 5 6 7 7 8 7 7 7 7 7 7 8 9 8 9 9 9 9 9 8 9 9 8 8 9 9 9 9 10 11 11 11 10 10
3 3 3 3 2 2 3 3 4 4 4 3 4 4 4 4 4 5 4 5 5 6 7 7 7 7 7 8 8 8 9 10 11 10 10 10 9 9 9 9 8 8 8 9 9 9 11 10 10 11 11 11
2 3 3 2 2 2 2 4 3 3 3 3 3 3 3 3 4 4 4 5 6 7 7 7 8 8 9 8 8 9 11 12 10 10 10 11 9 9 9 9 9 8 8 9 9 9 10 10 11 10 11 11
2 3 2 2 2 2 3 3 2 2 2 1 2 2 2 2 3 3 4 5 6 7 6 7 7 8 8 7 8 9 10 10 10 10 10 11 10 9 10 10 10 9 10 8 8 8 9 9 10 9 11 11
2 2 3 2 2 2 3 3 3 3 2 1 1 1 2 2 4 4 4 5 5 6 6 6 6 6 6 7 8 8 7 9 9 10 11 10 11 11 11 10 10 10 11 10 10 9 8 9 9 8 10 10
2 3 3 3 2 2 3 3 3 4 2 1 1 2 3 3 4 5 4 4 5 5 5 6 6 6 6 7 7 7 8 8 9 10 11 11 11 12 12 11 13 9 11 10 12 10 9 9 9 11 11 12
3 3 3 3 3 3 3 3 4 4 1 1 2 3 4 4 4 4 4 4 5 5 6 6 6 6 6 6 7 7 7 7 8 9 11 11 11 11 13 12 13 12 11 12 12 11 11 10 10 11 11 12
3 3 3 4 3 3 3 3 4 4 0 2 3 3 3 3 4 4 4 4 5 5 6 6 7 7 7 7 8 8 7 7 8 9 10 13 12 12 12 12 12 12 11 12 13 13 13 12 11 11 11 11
3 3 3 3 3 3 3 4 5 3 2 2 2 2 2 3 4 4 4 5 6 7 7 7 8 8 9 8 8 8 8 8 9 8 9 11 13 12 13 13 13 13 12 13 13 14 15 13 13 12 12 12
3 3 3 3 4 4 3 4 5 2 1 1 1 2 1 2 3 3 4 4 6 6 7 8 8 9 8 8 9 9 10 9 8 10 11 11 12 14 13 13 12 12 12 13 14 15 14 13 14 15 13 13
2 2 3 2 3 5 4 5 4 3 1 0 2 1 2 3 3 4 5 5 6 8 8 7 8 8 8 8 8 9 9 9 10 8 8 10 11 13 14 12 9 11 11 12 14 11 13 14 12 14 14 15
2 2 2 3 5 5 6 6 5 5 4 4 3 3 4 5 5 6 6 7 7 8 7 8 8 8 8 8 8 8 9 8 7 7 8 9 12 10 13 14 10 10 10 11 11 13 14 14 13 12 15 16
2 3 3 2 3 4 5 4 4 4 3 3 3 3 3 4 3 4 5 5 6 6 7 7 8 8 8 7 8 8 7 6 9 8 9 10 10 14 12 12 12 11 8 12 10 11 13 15 14 12 8 8
3 3 3 3 4 5 5 5 4 4 3 2 2 5 4 3 4 5 5 5 5 6 6 7 8 8 8 9 8 9 10 10 10 10 10 8 10 10 15 11 10 10 10 9 9 10 7 10 10 15 12 7
3 2 2 3 4 4 4 4 5 4 2 1 2 3 3 3 3 4 4 4 4 5 6 6 6 7 8 8 9 8 10 10 9 11 9 10 10 9 10 15 13 11 10 13 11 11 11 10 10 13 14 9
2 1 1 3 5 7 5 7 8 9 9 9 8 8 6 6 5 5 5 6 6 6 6 7 7 7 8 8 7 8 9 9 10 9 9 8 7 10 9 12 15 16 11 12 14 14 14 12 12 13 9 11
2 1 1 1 2 3 4 5 4 2 3 4 6 5 7 6 5 5 6 6 6 6 7 7 7 8 8 8 7 8 9 10 11 9 10 9 10 10 11 11 14 17 14 13 14 13 15 17 17 16 13 13
Wind_Direction
38 35 35 34 32 31 29 27 25 24 22 20 18 17 18 17 14 13 12 11 10 10 9 8 6 1 359 359 356 353 351 350 348 346 343 339 336 334 328 321 315 309 302 288 278 268 267 266 260 253 243 244
31 37 34 34 33 31 30 27 26 24 22 19 18 17 15 13 12 11 9 9 8 7 7 6 5 359 357 357 356 354 352 350 348 345 339 335 331 330 329 325 319 315 309 302 290 279 269 267 265 258 247 242
14 29 31 32 32 31 29 28 25 23 21 18 13 12 11 10 8 6 4 4 5 5 4 3 1 357 355 356 354 353 351 352 350 346 342 337 334 331 328 326 326 325 321 312 298 285 279 270 263 259 255 242
19 14 26 23 25 27 26 25 22 20 16 12 6 7 4 2 2 0 357 357 358 0 359 359 357 356 354 354 354 351 349 349 347 344 342 340 336 333 331 329 328 323 314 307 299 287 281 278 269 262 251 246
13 8 20 13 12 15 19 18 19 17 13 6 358 360 357 358 357 357 352 348 351 355 352 351 351 353 353 352 352 349 347 345 344 343 341 340 339 336 332 331 325 316 315 310 298 288 283 280 276 262 251 247
7 9 10 9 6 5 9 6 10 9 8 3 1 356 351 351 352 352 346 341 344 348 346 345 346 348 351 350 349 347 344 342 342 341 341 341 341 339 335 331 324 318 312 308 298 288 279 277 271 264 255 248
1 5 3 2 1 1 5 3 4 4 359 356 355 354 351 352 345 344 339 337 337 336 337 335 339 342 346 346 345 343 342 339 339 338 340 340 339 338 336 332 327 323 319 311 305 288 277 266 261 258 255 252
359 358 356 353 357 357 357 0 1 3 1 356 352 348 348 347 342 343 338 330 331 329 328 330 332 334 338 338 339 336 337 333 332 335 335 336 338 337 334 333 328 322 319 316 309 298 282 271 267 264 263 257
355 356 356 353 354 354 357 357 358 358 358 353 352 351 348 342 342 339 341 341 338 336 327 326 323 325 331 332 334 334 334 332 327 329 329 332 333 332 332 329 327 325 320 317 312 305 295 277 260 254 250 251
345 2 1 353 348 357 352 354 353 350 349 348 348 348 342 341 343 346 346 347 345 342 340 333 330 325 318 322 322 330 328 328 326 324 323 325 326 325 325 321 319 318 316 314 311 306 303 298 283 259 249 243
0 358 347 345 338 357 340 351 348 344 341 338 335 335 335 342 342 342 342 339 340 340 341 336 335 330 325 320 318 317 321 321 321 319 319 318 318 318 317 317 315 315 314 311 309 305 301 297 293 286 270 252
356 338 347 334 345 344 327 352 339 333 332 329 333 334 334 339 336 336 337 338 339 339 337 335 330 329 327 323 316 312 315 316 315 314 314 312 312 314 313 311 313 312 311 310 304 301 298 297 292 288 283 275
330 336 340 340 340 338 334 345 328 324 328 338 333 336 337 343 342 342 343 342 340 336 336 332 330 328 325 324 321 321 317 316 315 315 311 310 306 309 308 307 308 308 307 306 305 300 298 296 291 286 282 277
351 336 341 328 334 325 342 331 320 327 335 329 338 334 337 339 342 342 345 343 340 338 331 328 325 324 323 322 321 323 320 319 316 313 313 305 302 302 303 301 301 304 303 304 301 301 298 295 293 288 282 276
342 334 328 317 322 334 335 314 320 326 327 333 336 329 335 340 354 357 352 344 337 330 325 322 322 322 318 317 320 321 319 320 318 315 309 307 303 299 296 294 295 296 296 297 300 299 297 297 294 290 287 281
331 315 298 308 328 322 315 317 319 326 332 342 334 334 353 355 1 357 342 335 334 330 324 323 329 328 330 327 326 328 325 322 319 314 307 303 299 294 291 291 287 286 288 291 294 295 294 296 293 292 291 285
281 284 293 293 306 297 309 308 308 306 314 319 319 337 357 350 355 343 339 337 338 335 331 334 337 334 331 327 329 329 325 319 314 311 312 306 301 298 295 290 288 282 280 285 288 290 293 299 295 297 296 292
277 282 279 279 276 289 293 283 280 282 284 299 317 328 327 345 347 341 343 345 340 337 334 332 326 323 321 323 329 330 326 323 320 311 307 306 307 303 300 298 294 291 284 282 284 284 291 289 289 293 289 288
277 276 280 280 269 274 271 269 272 272 268 272 293 318 319 354 351 353 349 343 334 327 322 317 313 309 311 320 325 321 320 318 317 314 311 311 305 301 301 297 290 288 286 288 285 284 285 284 290 287 281 280
264 263 263 258 262 269 266 275 276 271 280 314 340 350 350 359 354 351 340 334 330 322 319 315 311 307 308 317 318 316 315 318 319 320 314 310 308 304 298 298 296 291 287 287 287 283 279 281 284 285 285 283
273 271 269 267 266 262 259 269 271 265 275 351 10 357 359 356 348 335 331 329 330 329 323 320 316 311 312 314 315 312 311 314 319 320 316 310 306 298 298 297 291 291 292 293 287 286 279 276 279 276 280 282
248 250 265 262 257 259 248 260 261 256 325 21 7 354 349 343 334 324 325 330 331 329 322 321 319 319 318 320 318 316 316 316 320 318 319 316 316 310 301 294 292 291 291 290 291 286 281 280 273 271 274 278
254 268 275 271 273 275 268 278 270 263 31 20 348 334 328 336 328 322 326 333 335 334 331 328 327 325 328 325 322 321 317 318 319 313 310 307 305 302 296 295 295 293 291 287 281 279 280 279 274 271 269 270
271 270 278 294 306 296 271 264 266 279 88 3 301 269 286 306 296 303 320 327 334 331 332 329 327 325 327 327 323 319 317 314 315 312 308 302 300 297 290 284 288 289 288 281 277 279 280 277 276 271 267 263
224 263 296 278 255 269 274 282 292 310 9 274 261 273 298 314 317 327 330 335 336 337 333 330 324 324 323 319 314 305 299 298 294 289 297 304 301 300 297 288 279 281 288 291 288 283 280 281 271 270 268 264
217 211 206 235 266 272 290 298 301 317 340 334 328 335 339 335 335 337 338 335 337 331 328 324 322 318 313 313 301 292 287 285 283 298 301 305 303 299 301 297 296 289 297 283 288 305 301 287 284 270 264 257
220 228 237 212 255 253 273 260 248 256 270 293 297 316 324 314 312 318 321 322 323 320 317 313 313 308 307 302 304 303 299 298 299 297 298 300 297 304 293 287 293 288 267 282 289 287 294 291 309 295 256 255
220 225 235 248 251 265 248 266 265 261 271 290 342 319 312 310 316 321 312 309 303 300 300 304 305 308 308 310 314 312 309 308 302 302 299 294 291 292 296 294 290 292 291 279 293 287 258 291 296 297 285 312
224 237 275 260 268 252 270 261 248 230 247 191 261 276 284 288 277 279 284 279 275 283 292 294 297 303 304 305 306 303 297 295 292 292 285 285 283 282 292 299 296 289 289 286 268 267 285 280 265 257 286 331
205 228 269 323 347 349 344 331 339 344 344 335 333 322 315 313 312 305 298 296 299 295 298 302 301 300 302 298 295 293 290 288 290 282 280 275 282 287 284 292 299 294 287 281 280 266 262 264 274 289 290 315
211 254 253 287 304 268 278 293 271 267 286 287 295 295 300 299 297 291 292 293 290 297 297 298 301 301 299 297 293 295 295 294 294 296 296 297 288 283 286 283 284 287 292 288 272 272 266 264 263 264 273 267